CZ-6A DEB, 54595

Orbit data source: Space-Track

CZ-6A DEB, 54595 is space debris in SSO originally from a launch on Fri, 11 Nov 2022 UTC launched from the Taiyaun Space Center, China (TSC). Debris objects in space refer to the collection of defunct objects orbiting the Earth. Examples of debris include non-operational satellites, rocket bodies, and fragments generated from explosions, collisions, or faulty payload assembly.

Loading next visibility...
Identifier
54595, 2022-151MV
Orbit
SSO
Country
Flag of CNCN / PRC
Related business
Manufacturer
SAST
Mission
Spacecraft
Bus & Motor
Unknown
Mass
Unknown
Launch date (UTC)
2022-11-11 (4 years ago)
Launch vehicle
Unknown
Launch site
Taiyaun Space Center, China (TSC)
Object type
Payload
Rocket body
Debris
Shape & HBR
Unknown shape, 0.1 m
Radar Cross Section
Medium (>0.1 m² and <1 m²)

Expand to show TLE details & history
Last TLE update: 2 days ago

TLE from 2 days ago
0 CZ-6A DEB
1 54595U 22151MV  26171.33095208  .00000671  00000-0  21985-3 0  9998
2 54595  98.5728 196.5649 0099517 357.8887   2.1867 14.38986727188406
Epoch: 2026-06-20T07:56Z
TLE epoch observation values (Epoch: 2026-06-20T07:56:34.259Z)
Latitude
-0.00002°
Longitude
168.87504°
Altitude
693.777 km
Speed
7.547 km/s
True Right ascension
13h 06m 15s
True Declination
0° 00' 00"
Sunlit
Object was in daylight at epoch
Visualization orbit readout
Latitude
Unknown
Longitude
Unknown
Altitude
Unknown
Speed
Unknown
Apparent Right ascension
Unknown
Apparent Declination
Unknown
Sunlit
N/A
Visualization observer readout
Local Sidereal Time
21:24:31
Azimuth
Unknown
Elevation
Unknown
Doppler factor
Unknown
Orbital elements
Apogee altitude
830.001 km
Perigee altitude
687.948 km
Semi-major axis
7,137.112 km
Eccentricity
0.00995
Inclination
98.5728°
RAAN
196.5649°
Arg. of periapsis
357.8887°
True anomaly
2.23076°
Mean anomaly
2.1867°
Eccentric anomaly
2.20867°
Mean motion
3.59964 °/min
Orbital period
100.01 mins
BSTAR
0.00021985
Loading maneuver chart data...
Computing Atmospheric mass density...
Loading historical data...
Loading historical data...
Loading historical data...
Loading historical data...
Loading historical data...
Loading historical data...
Loading historical data...

Documentation

Showing up to 5 results
|